Location: Oberkirch
(48.5323°N, 8.0787°E)
Time: 14:46:46
(UTC+00:00)

Vanguard 3 - Pass Details

Date: 19 February 2026
Orbit: 507 x 3205 km, 33.3° (Epoch: 5 March)

Event Time Altitude Azimuth Distance (km) Brightness Sun altitude
Rises 18:50:20 0° 254° (WSW) 4,054 12.0 -19.6°
Reaches altitude 10° 18:55:23 10° 228° (SW) 2,522 10.2 -20.5°
Maximum altitude 18:57:35 12° 204° (SSW) 2,139 9.5 -20.8°
Drops below altitude 10° 18:59:32 10° 180° (S) 2,115 9.2 -21.2°
Enters shadow 19:00:13 - 172° (S) 2,184 9.2 -21.3°
